EW9931 Weather Reports


time (UTC)temp
C
wind
direction
speed
KPH
gust
KPH
rain 1hr
cm
rain 24hr
cm
rain mn
cm
humidity
%
barometer
mb
20240723043016 18 179 0.0 0.0 0.00 0.00 0.00 53 1003.4
20240723041518 18 179 0.0 0.0 0.00 0.00 0.00 52 1002.6
20240723040012 18 179 0.0 0.0 0.00 0.00 0.00 53 1003.7
20240723034510 19 179 0.0 0.0 0.00 0.00 0.00 50 1003.7
20240723033010 20 179 0.0 0.0 0.00 0.00 0.00 51 1003.2
20240723031504 20 179 0.0 0.0 0.00 0.00 0.00 46 1003.3
20240723030003 21 179 0.0 0.0 0.00 0.00 0.00 47 1003.4
20240723024559 21 179 0.0 0.0 0.00 0.00 0.00 46 1002.7
20240723023058 21 179 0.0 0.0 0.00 0.00 0.00 43 1002.8
20240723021607 22 179 0.0 0.0 0.00 0.00 0.00 45 1002.1
20240723020054 22 178 0.0 0.0 0.00 0.00 0.00 43 1002.1
20240723014555 23 178 0.0 0.0 0.00 0.00 0.00 43 1001.5
20240723013108 23 178 0.0 0.0 0.00 0.00 0.00 43 1001.0
20240723011555 24 178 0.0 0.0 0.00 0.00 0.00 48 1000.6
20240723010045 25 195 0.0 0.0 0.00 0.00 0.00 45 1000.0
20240723004545 25 172 0.0 0.0 0.00 0.00 0.00 36 1000.8
20240723003043 25 203 1.6 0.0 0.00 0.00 0.00 34 1000.8
20240723001542 25 240 0.0 0.0 0.00 0.00 0.00 33 1000.9
20240723000044 25 256 1.6 0.0 0.00 0.00 0.00 34 1001.6
20240722234541 25 258 0.0 0.0 0.00 0.00 0.00 34 1001.2
20240722233040 -17 0.0 0.0 0.00 0.00 0.00 1004.4
20240722231540 -17 0.0 0.0 0.00 0.00 0.00 1004.5
20240722230030 25 244 0.0 0.0 0.00 0.00 0.00 40 1000.5
20240722224529 25 260 1.6 0.0 0.00 0.00 0.00 41 1000.6
20240722223028 25 240 1.6 0.0 0.00 0.00 0.00 40 1000.6
20240722221526 26 244 0.0 0.0 0.00 0.00 0.00 1004.1
20240722214504 25 227 1.6 0.0 0.00 0.00 1.02 55 1001.1
20240722213114 24 226 0.0 0.0 0.00 0.00 1.02 57 1001.8
20240722211556 23 226 0.0 0.0 0.00 0.00 1.02 62 1001.8
20240722210051 21 226 0.0 0.0 0.00 0.00 1.02 67 1001.5
20240722204548 20 226 0.0 0.0 0.00 0.00 1.02 83 1002.4
20240722203042 17 226 0.0 0.0 0.00 0.00 1.02 87 1003.9
20240722201538 16 226 0.0 0.0 0.00 0.00 1.02 83 1004.7
20240722200040 16 226 0.0 0.0 0.00 0.00 1.02 75 1004.8
20240722194536 19 226 1.6 0.0 0.00 0.00 0.99 65 1003.7
20240722193025 23 147 1.6 0.0 0.00 0.00 0.10 55 1002.6
20240722191521 26 263 0.0 0.0 0.00 0.00 0.00 34 1001.2
20240722190020 26 263 0.0 0.0 0.00 0.00 0.00 32 1001.1
20240722184512 26 356 1.6 0.0 0.00 0.00 0.00 30 1001.3
20240722183009 26 333 3.2 0.0 0.00 0.00 0.00 30 1001.2
20240722181508 27 246 1.6 0.0 0.00 0.00 0.00 29 1000.8
20240722180115 26 254 0.0 0.0 0.00 0.00 0.00 31 1001.2
20240722174555 26 344 3.2 0.0 0.00 0.00 0.00 30 1001.3
20240722173108 26 257 0.0 0.0 0.00 0.00 0.00 31 1001.7
20240722171546 25 222 1.6 0.0 0.00 0.00 0.00 33 1001.6
20240722170041 25 296 0.0 0.0 0.00 0.00 0.00 33 1001.6
20240722164539 25 288 0.0 0.0 0.00 0.00 0.00 32 1001.4
20240722163033 23 318 0.0 0.0 0.00 0.00 0.00 35 1001.7
20240722161544 22 318 0.0 0.0 0.00 0.00 0.00 35 1002.3
20240722160024 22 318 0.0 0.0 0.00 0.00 0.00 36 1002.8
20240722154519 21 318 0.0 0.0 0.00 0.00 0.00 39 1002.6
20240722153025 20 318 0.0 0.0 0.00 0.00 0.00 43 1002.8
20240722151511 19 318 0.0 0.0 0.00 0.00 0.00 47 1003.3
20240722150006 18 319 0.0 0.0 0.00 0.00 0.00 55 1003.2
20240722144506 17 318 0.0 0.0 0.00 0.00 0.00 58 1003.5
20240722143101 17 318 0.0 0.0 0.00 0.00 0.00 59 1003.6
20240722141601 17 318 0.0 0.0 0.00 0.00 0.00 58 1004.1
20240722140050 16 318 0.0 0.0 0.00 0.00 0.00 54 1003.6
20240722134555 16 318 0.0 0.0 0.00 0.00 0.00 52 1003.6
20240722133046 17 318 0.0 0.0 0.00 0.00 0.00 51 1003.7
20240722131545 17 151 0.0 0.0 0.00 0.00 0.00 49 1003.7
20240722130045 17 151 0.0 0.0 0.00 0.00 0.00 48 1002.5
20240722124556 17 151 0.0 0.0 0.00 0.00 0.00 47 1002.3
20240722123045 17 151 0.0 0.0 0.00 0.00 0.00 46 1002.5
20240722121543 17 151 0.0 0.0 0.00 0.00 0.00 47 1002.4
20240722120053 17 151 0.0 0.0 0.00 0.00 0.00 48 1001.8
20240722114542 17 151 0.0 0.0 0.00 0.00 0.00 49 1001.8
20240722113054 16 151 0.0 0.0 0.00 0.00 0.00 52 1002.1
20240722111540 16 151 0.0 0.0 0.00 0.00 0.00 52 1002.0
20240722110039 17 151 0.0 0.0 0.00 0.00 0.00 52 1001.5
20240722104542 17 151 0.0 0.0 0.00 0.00 0.00 51 1001.4
20240722103044 17 151 0.0 0.0 0.00 0.00 0.00 50 1001.1
20240722101534 17 151 0.0 0.0 0.00 0.00 0.00 49 1001.3
20240722100032 17 151 0.0 0.0 0.00 0.00 0.00 48 1000.8
20240722094529 18 151 0.0 0.0 0.00 0.00 0.00 47 1000.7
20240722093034 18 151 0.0 0.0 0.00 0.00 0.00 45 1000.3
20240722091528 19 151 0.0 0.0 0.00 0.00 0.00 44 1000.4
20240722090024 19 151 0.0 0.0 0.00 0.00 0.00 43 1000.4
20240722084537 20 151 0.0 0.0 0.00 0.00 0.00 43 1000.4
20240722083032 20 151 0.0 0.0 0.00 0.00 0.00 43 1000.4
20240722081522 20 151 1.6 0.0 0.00 0.00 0.00 43 1000.5
20240722080021 20 151 3.2 0.0 0.00 0.00 0.00 43 1000.1
20240722074518 20 151 3.2 0.0 0.00 0.00 0.00 44 1000.5
20240722073016 20 151 0.0 0.0 0.00 0.00 0.00 45 1000.5
20240722071509 20 151 0.0 0.0 0.00 0.00 0.00 44 1000.4
20240722070005 20 151 0.0 0.0 0.00 0.00 0.00 45 1001.0
20240722064601 20 151 0.0 0.0 0.00 0.00 0.00 43 1000.6
20240722063056 20 151 0.0 0.0 0.00 0.00 0.00 41 1000.9
20240722061553 20 151 0.0 0.0 0.00 0.00 0.00 41 1000.9
20240722060048 20 151 0.0 0.0 0.00 0.00 0.00 40 1001.0
20240722054543 20 151 1.6 0.0 0.00 0.00 0.00 40 1000.9
20240722053050 20 151 1.6 0.0 0.00 0.00 0.00 39 1000.5
20240722051534 21 151 1.6 0.0 0.00 0.00 0.00 38 1000.8
20240722050030 21 151 3.2 0.0 0.00 0.00 0.00 38 1001.1
20240722044526 21 151 3.2 0.0 0.00 0.00 0.00 37 1001.1